This is the latest recevied weather packets stored in our database for station/object SQ9SMC-13. If no packets are shown the sender has not sent any weather packets the latest 10 day(s).
| Time | Temp. | Humidity | Pressure | Rain* | Wind** | Luminosity | Snow |
|---|---|---|---|---|---|---|---|
| 1777710003 | 20.56° C | 35% | 1026.9 hPa | 0 mm | - | 509 W/m² | - |
| 1777709703 | 20° C | 37% | 1027 hPa | 0 mm | - | 493 W/m² | - |
| 1777709403 | 20.56° C | 36% | 1027 hPa | 0 mm | - | 489 W/m² | - |
| 1777709102 | 20° C | 38% | 1027.1 hPa | 0 mm | - | 479 W/m² | - |
| 1777708806 | 19.44° C | 38% | 1027 hPa | 0 mm | - | 466 W/m² | - |
| 1777708504 | 20.56° C | 38% | 1027.1 hPa | 0 mm | - | 457 W/m² | - |
| 1777708204 | 20.56° C | 36% | 1026.9 hPa | 0 mm | - | 448 W/m² | - |
| 1777707903 | 20° C | 38% | 1026.9 hPa | 0 mm | - | 425 W/m² | - |
| 1777707603 | 19.44° C | 38% | 1027 hPa | 0 mm | - | 425 W/m² | - |
| 1777707303 | 19.44° C | 40% | 1027 hPa | 0 mm | - | 417 W/m² | - |
| 1777707007 | 20° C | 37% | 1027.1 hPa | 0 mm | - | 403 W/m² | - |
| 1777706703 | 19.44° C | 39% | 1027 hPa | 0 mm | - | 395 W/m² | - |
| 1777706402 | 18.89° C | 40% | 1027.2 hPa | 0 mm | - | 374 W/m² | - |
| 1777706103 | 18.89° C | 39% | 1027.1 hPa | 0 mm | - | 376 W/m² | - |
| 1777705802 | 18.89° C | 40% | 1027.1 hPa | 0 mm | - | 363 W/m² | - |
| 1777705504 | 18.89° C | 41% | 1026.9 hPa | 0 mm | - | 353 W/m² | - |
| 1777705203 | 18.89° C | 44% | 1027.2 hPa | 0 mm | - | 339 W/m² | - |
| 1777704902 | 18.33° C | 45% | 1027.1 hPa | 0 mm | - | 330 W/m² | - |
| 1777704604 | 17.78° C | 47% | 1027.1 hPa | 0 mm | - | 318 W/m² | - |
| 1777704304 | 17.78° C | 47% | 1027 hPa | 0 mm | - | 305 W/m² | - |
| 1777704004 | 17.78° C | 49% | 1027.2 hPa | 0 mm | - | 292 W/m² | - |
| 1777703705 | 17.78° C | 48% | 1027.2 hPa | 0 mm | - | 280 W/m² | - |
| 1777703403 | 17.22° C | 50% | 1027.2 hPa | 0 mm | - | 266 W/m² | - |
| 1777703105 | 16.67° C | 53% | 1027 hPa | 0 mm | - | 256 W/m² | - |
| 1777702803 | 16.11° C | 52% | 1027.2 hPa | 0 mm | - | 244 W/m² | - |
* Rain latest hour (hover to see other rain measurements)
** Current wind speed in m/s (hover to see current wind gust speed)